Regional Weather Roundup
Issued by NWS

Home | Current Version | Previous Version | Graphics & Text | Print | Product List | Glossary On
Versions: 1 2 3 4 5 6 7 8 9 10 11 12 13 14 15 16 17 18 19 20 21 22 23 24 25 26 27 28 29 30 31 32 33 34 35 36 37 38 39 40 41 42 43 44 45 46 47 48 49 50
000
ASUS43 KFSD 021902
RWRSD

WEATHER ROUNDUP FOR SOUTH DAKOTA
NATIONAL WEATHER SERVICE SIOUX FALLS SD
200 PM CDT SUN AUG 02 2015

NOTE: "FAIR" INDICATES FEW OR NO CLOUDS BELOW 12,000 FEET WITH NO
SIGNIFICANT WEATHER AND/OR OBSTRUCTIONS TO VISIBILITY.


SDZ001>005-009-010-012>017-022000-
NORTHWEST AND NORTH CENTRAL SOUTH DAKOTA

CITY           SKY/WX    TMP DP  RH WIND       PRES   REMARKS
BUFFALO          N/A     82  49  31 NE15G22   29.95F
FAITH            N/A     83  49  30 N14       29.98R
MOBRIDGE       SUNNY     82  56  40 N18G25    29.90S
$$

SDZ012>016-024>037-041>051-057-063-072>074-022000-
SOUTHWEST AND SOUTH CENTRAL SOUTH DAKOTA

CITY           SKY/WX    TMP DP  RH WIND       PRES   REMARKS
RAPID CTY ARPT SUNNY     82  55  39 NE10      30.01F
PIERRE         SUNNY     86  53  32 NE14G23   29.90R
CUSTER         MOSUNNY   79  51  37 E14       30.12S
ELLSWORTH AFB  MOSUNNY   82  52  34 CALM      30.01S
PHILIP         SUNNY     86  55  34 NE13G18   29.94S
PINE RIDGE     SUNNY     86  54  33 E10       29.99S
WINNER         FAIR      89  59  36 NE14      29.90S
$$

SDZ004>011-016>023-039-040-022000-
NORTHEAST SOUTH DAKOTA

CITY           SKY/WX    TMP DP  RH WIND       PRES   REMARKS
ABERDEEN       SUNNY     82  56  40 N15       29.87F
WATERTOWN      SUNNY     79  58  48 NW18      29.86S
BROOKINGS      SUNNY     81  59  47 N16G26    29.86R
SISSETON         N/A     77  60  55 N16       29.84R
$$

SDZ017-020-022-023-036>040-048>070-022000-
SOUTHEAST SOUTH DAKOTA

CITY           SKY/WX    TMP DP  RH WIND       PRES   REMARKS
SIOUX FALLS    MOSUNNY   85  66  53 N9        29.83R
HURON          SUNNY     82  58  43 N16       29.86S
CHAMBERLAIN    SUNNY     83  60  46 NE12      29.89S
MITCHELL       SUNNY     84  64  50 N16       29.86S
YANKTON        SUNNY     84  64  51 N9G17     29.82R
$$

ABBREVIATIONS USED IN REMARKS
   TC - TEMPERATURE IN CELSIUS
  WCI - WIND CHILL INDEX
   HX - HEAT INDEX
  VSB - VISIBILITY



USA.gov is the U.S. government's official web portal to all federal, state and local government web resources and services.